Find Starlink 5660

NORAD ID: 55335 Int'l Des: 2023-013 Owner: SPXS Country: US Constellation: starlink operational
LEOCIRCULAR

Live Position

Loading 3D Globe...

About Starlink 5660

Description loading...

Upcoming Passes

Passes for default location (London). Set your location on the main map for personalized predictions.

Altitude History

Loading altitude history...

Two-Line Element Set

1 55335U 23013E 26124.02463215 .00001230 00000-0 55528-4 0 9993
2 55335 43.0043 351.1300 0001355 276.0211 84.0486 15.26746114180133
Epoch: May 4, 2026 • Age: 10 hours

Current Status

Altitude 486.2 km
Velocity 7.63 km/s
Sub-Earth Point 27.15°N, 6.8°E
Launch Date Jan 26, 2023
Age 3.2 years
Type internet

Technical Details

Classification Payload
Mass 305.00 kg
Dry Mass 290.00 kg
Total Mass 305.00 kg
Length 0.20 m
Diameter 2.80 m
Span 9.00 m
Shape Box + pan
Manufacturer SPXS
Bus Type Starlink
Phase Status In Orbit
Owner/State SPXS/US

Most Searched